Time,TemperatureF,DewpointF,PressureIn,WindDirection,WindDirectionDegrees,WindSpeedMPH,WindSpeedGustMPH,Humidity,HourlyPrecipIn,Conditions,Clouds,dailyrainin,SoftwareType,DateUTC
2013-03-12 00:00:00,42.1,41.0,30.11,SSW,200,0.0,0.0,96,0.00,,,0.00,Wunderground PWS Mod,2013-03-12 04:00:00,
2013-03-12 00:02:00,42.1,41.0,30.11,SSW,200,0.0,0.0,96,0.00,,,0.00,Wunderground PWS Mod,2013-03-12 04:02:00,
2013-03-12 00:08:00,42.1,41.0,30.11,SSW,200,0.0,0.0,96,0.00,,,0.00,Wunderground PWS Mod,2013-03-12 04:08:00,
2013-03-12 00:14:00,42.0,40.9,30.11,SSW,199,0.0,0.0,96,0.00,,,0.00,Wunderground PWS Mod,2013-03-12 04:14:00,
2013-03-12 00:20:00,41.9,40.8,30.11,SSW,199,0.0,0.0,96,0.00,,,0.00,Wunderground PWS Mod,2013-03-12 04:20:00,
2013-03-12 00:25:00,41.9,40.8,30.11,SSW,200,0.0,0.0,96,0.00,,,0.00,Wunderground PWS Mod,2013-03-12 04:25:00,
2013-03-12 00:30:00,41.8,40.7,30.11,SSW,199,0.0,0.0,96,0.00,,,0.00,Wunderground PWS Mod,2013-03-12 04:30:00,
2013-03-12 00:35:00,41.9,40.8,30.11,SSW,200,0.0,0.0,96,0.00,,,0.00,Wunderground PWS Mod,2013-03-12 04:35:00,
2013-03-12 00:41:00,41.8,40.7,30.11,SSW,200,0.0,0.0,96,0.00,,,0.00,Wunderground PWS Mod,2013-03-12 04:41:00,
2013-03-12 00:46:00,41.8,40.7,30.11,SSW,198,0.0,0.0,96,0.00,,,0.00,Wunderground PWS Mod,2013-03-12 04:46:00,
2013-03-12 00:52:00,41.8,41.0,30.11,SSW,198,0.0,0.0,97,0.00,,,0.00,Wunderground PWS Mod,2013-03-12 04:52:00,
2013-03-12 00:57:00,41.9,41.1,30.10,SSW,198,0.0,0.0,97,0.00,,,0.00,Wunderground PWS Mod,2013-03-12 04:57:00,
2013-03-12 01:03:00,41.8,41.0,30.10,SSW,198,0.0,0.0,97,0.00,,,0.00,Wunderground PWS Mod,2013-03-12 05:03:00,
2013-03-12 01:08:00,41.8,41.0,30.10,SSW,198,0.0,0.0,97,0.00,,,0.00,Wunderground PWS Mod,2013-03-12 05:08:00,
2013-03-12 01:13:00,41.7,40.9,30.10,SSW,198,0.0,0.0,97,0.00,,,0.00,Wunderground PWS Mod,2013-03-12 05:13:00,
2013-03-12 01:19:00,41.7,40.9,30.10,SSW,198,0.0,0.0,97,0.00,,,0.00,Wunderground PWS Mod,2013-03-12 05:19:00,
2013-03-12 01:24:00,41.8,41.0,30.09,SSW,198,0.0,0.0,97,0.00,,,0.00,Wunderground PWS Mod,2013-03-12 05:24:00,
2013-03-12 01:30:00,41.8,41.0,30.09,SSW,198,0.0,0.0,97,0.00,,,0.00,Wunderground PWS Mod,2013-03-12 05:30:00,
2013-03-12 01:37:00,41.9,41.1,30.09,SSW,198,0.0,0.0,97,0.00,,,0.00,Wunderground PWS Mod,2013-03-12 05:37:00,
2013-03-12 01:43:00,42.0,41.2,30.09,SSW,198,0.0,0.0,97,0.00,,,0.00,Wunderground PWS Mod,2013-03-12 05:43:00,
2013-03-12 01:48:00,42.1,41.3,30.09,SSW,198,0.0,0.0,97,0.00,,,0.00,Wunderground PWS Mod,2013-03-12 05:48:00,
2013-03-12 01:54:00,42.1,41.3,30.09,SSW,198,0.0,0.0,97,0.00,,,0.00,Wunderground PWS Mod,2013-03-12 05:54:00,
2013-03-12 02:00:00,42.1,41.3,30.09,SSW,198,0.0,0.0,97,0.00,,,0.00,Wunderground PWS Mod,2013-03-12 06:00:00,
2013-03-12 02:05:00,42.1,41.3,30.08,SSW,198,0.0,0.0,97,0.00,,,0.00,Wunderground PWS Mod,2013-03-12 06:05:00,
2013-03-12 02:10:00,42.1,41.3,30.08,SSW,198,0.0,0.0,97,0.00,,,0.00,Wunderground PWS Mod,2013-03-12 06:10:00,
2013-03-12 02:15:00,42.1,41.3,30.08,SSW,198,0.0,0.0,97,0.00,,,0.00,Wunderground PWS Mod,2013-03-12 06:15:00,
2013-03-12 02:20:00,42.2,41.4,30.08,SSW,198,0.0,0.0,97,0.00,,,0.00,Wunderground PWS Mod,2013-03-12 06:20:00,
2013-03-12 02:26:00,42.5,41.7,30.08,SSW,194,0.0,0.0,97,0.00,,,0.00,Wunderground PWS Mod,2013-03-12 06:26:00,
2013-03-12 02:31:00,42.6,41.8,30.08,SSW,192,0.0,0.0,97,0.00,,,0.00,Wunderground PWS Mod,2013-03-12 06:31:00,
2013-03-12 02:37:00,42.9,42.1,30.07,SW,236,0.0,0.0,97,0.00,,,0.00,Wunderground PWS Mod,2013-03-12 06:37:00,
2013-03-12 02:42:00,43.3,42.8,30.07,SW,232,0.0,0.0,98,0.00,,,0.00,Wunderground PWS Mod,2013-03-12 06:42:00,
2013-03-12 02:47:00,43.6,42.8,30.06,SW,225,0.0,0.0,97,0.00,,,0.00,Wunderground PWS Mod,2013-03-12 06:47:00,
2013-03-12 02:53:00,43.9,43.4,30.05,SW,229,0.0,1.0,98,0.00,,,0.00,Wunderground PWS Mod,2013-03-12 06:53:00,
2013-03-12 02:58:00,44.2,43.7,30.05,SSW,202,0.0,0.0,98,0.00,,,0.00,Wunderground PWS Mod,2013-03-12 06:58:00,
2013-03-12 03:04:00,44.5,44.0,30.04,South,175,0.0,0.0,98,0.00,,,0.00,Wunderground PWS Mod,2013-03-12 07:04:00,
2013-03-12 03:10:00,44.8,44.3,30.04,WSW,242,0.0,2.0,98,0.00,,,0.00,Wunderground PWS Mod,2013-03-12 07:10:00,
2013-03-12 03:15:00,45.1,44.6,30.04,SSW,205,0.0,1.0,98,0.00,,,0.00,Wunderground PWS Mod,2013-03-12 07:15:00,
2013-03-12 03:22:00,45.4,44.9,30.03,South,188,1.0,1.0,98,0.00,,,0.00,Wunderground PWS Mod,2013-03-12 07:22:00,
2013-03-12 03:28:00,45.7,45.2,30.04,WSW,248,1.0,2.0,98,0.00,,,0.00,Wunderground PWS Mod,2013-03-12 07:28:00,
2013-03-12 03:33:00,45.9,45.4,30.03,SW,226,1.0,1.0,98,0.00,,,0.00,Wunderground PWS Mod,2013-03-12 07:33:00,
2013-03-12 03:39:00,46.2,45.7,30.03,South,174,1.0,1.0,98,0.00,,,0.00,Wunderground PWS Mod,2013-03-12 07:39:00,
2013-03-12 03:44:00,46.4,45.9,30.03,SSW,207,1.0,2.0,98,0.00,,,0.00,Wunderground PWS Mod,2013-03-12 07:44:00,
2013-03-12 03:50:00,46.5,46.0,30.02,South,184,1.0,2.0,98,0.00,,,0.00,Wunderground PWS Mod,2013-03-12 07:50:00,
2013-03-12 03:55:00,46.6,46.1,30.02,SW,217,1.0,1.0,98,0.00,,,0.00,Wunderground PWS Mod,2013-03-12 07:55:00,
2013-03-12 04:00:00,46.6,46.1,30.02,ENE,58,1.0,2.0,98,0.00,,,0.00,Wunderground PWS Mod,2013-03-12 08:00:00,
2013-03-12 04:05:00,46.5,46.0,30.02,SSW,203,1.0,6.0,98,0.00,,,0.00,Wunderground PWS Mod,2013-03-12 08:05:00,
2013-03-12 04:11:00,46.5,45.7,30.02,South,183,1.0,6.0,97,0.00,,,0.00,Wunderground PWS Mod,2013-03-12 08:11:00,
2013-03-12 04:14:00,46.5,46.0,30.02,SSW,203,1.0,6.0,98,0.00,,,0.00,Wunderground PWS Mod,2013-03-12 08:14:00,
2013-03-12 04:16:00,46.7,45.9,30.01,SE,127,1.0,6.0,97,0.00,,,0.00,Wunderground PWS Mod,2013-03-12 08:16:00,
2013-03-12 04:22:00,46.7,45.9,30.01,South,188,1.0,6.0,97,0.00,,,0.00,Wunderground PWS Mod,2013-03-12 08:22:00,
2013-03-12 04:27:00,46.8,46.0,30.02,SE,128,1.0,6.0,97,0.00,,,0.00,Wunderground PWS Mod,2013-03-12 08:27:00,
2013-03-12 04:32:00,46.8,46.0,30.02,South,186,1.0,6.0,97,0.00,,,0.00,Wunderground PWS Mod,2013-03-12 08:32:00,
2013-03-12 04:38:00,46.8,46.0,30.02,WSW,241,1.0,6.0,97,0.00,,,0.00,Wunderground PWS Mod,2013-03-12 08:38:00,
2013-03-12 04:44:00,46.8,46.0,30.02,WSW,251,1.0,6.0,97,0.00,,,0.00,Wunderground PWS Mod,2013-03-12 08:44:00,
2013-03-12 04:50:00,46.7,45.6,30.02,SSW,210,1.0,6.0,96,0.00,,,0.00,Wunderground PWS Mod,2013-03-12 08:50:00,
2013-03-12 04:55:00,46.7,45.6,30.02,SSW,197,1.0,6.0,96,0.00,,,0.00,Wunderground PWS Mod,2013-03-12 08:55:00,
2013-03-12 05:00:00,46.7,45.6,30.02,East,84,2.0,6.0,96,0.00,,,0.00,Wunderground PWS Mod,2013-03-12 09:00:00,
2013-03-12 05:05:00,46.6,45.5,30.02,South,172,1.0,6.0,96,0.00,,,0.00,Wunderground PWS Mod,2013-03-12 09:05:00,
2013-03-12 05:12:00,46.6,45.5,30.02,SSW,198,1.0,6.0,96,0.00,,,0.00,Wunderground PWS Mod,2013-03-12 09:12:00,
2013-03-12 05:18:00,46.5,45.4,30.03,WSW,254,1.0,6.0,96,0.00,,,0.00,Wunderground PWS Mod,2013-03-12 09:18:00,
2013-03-12 05:24:00,46.5,45.4,30.03,SW,217,0.0,6.0,96,0.00,,,0.00,Wunderground PWS Mod,2013-03-12 09:24:00,
2013-03-12 05:30:00,46.5,45.4,30.03,SSW,213,0.0,6.0,96,0.00,,,0.00,Wunderground PWS Mod,2013-03-12 09:30:00,
2013-03-12 05:35:00,46.6,45.5,30.02,SSW,205,0.0,6.0,96,0.00,,,0.00,Wunderground PWS Mod,2013-03-12 09:35:00,
2013-03-12 05:41:00,46.6,45.5,30.02,SW,216,0.0,6.0,96,0.00,,,0.00,Wunderground PWS Mod,2013-03-12 09:41:00,
2013-03-12 05:46:00,46.7,45.3,30.02,South,177,0.0,6.0,95,0.00,,,0.00,Wunderground PWS Mod,2013-03-12 09:46:00,
2013-03-12 05:52:00,46.8,45.4,30.02,SSW,212,0.0,6.0,95,0.00,,,0.00,Wunderground PWS Mod,2013-03-12 09:52:00,
2013-03-12 05:57:00,46.8,45.4,30.02,South,191,0.0,6.0,95,0.00,,,0.00,Wunderground PWS Mod,2013-03-12 09:57:00,
2013-03-12 06:03:00,46.9,45.5,30.01,SE,142,1.0,6.0,95,0.00,,,0.00,Wunderground PWS Mod,2013-03-12 10:03:00,
2013-03-12 06:08:00,46.9,45.5,30.01,SSE,157,0.0,6.0,95,0.00,,,0.00,Wunderground PWS Mod,2013-03-12 10:08:00,
2013-03-12 06:13:00,47.0,45.6,30.01,SW,223,0.0,6.0,95,0.00,,,0.00,Wunderground PWS Mod,2013-03-12 10:13:00,
2013-03-12 06:19:00,47.0,45.6,30.01,SE,136,1.0,6.0,95,0.00,,,0.00,Wunderground PWS Mod,2013-03-12 10:19:00,
2013-03-12 06:24:00,47.2,45.8,30.01,SW,221,1.0,6.0,95,0.00,,,0.00,Wunderground PWS Mod,2013-03-12 10:24:00,
2013-03-12 06:30:00,47.2,45.6,30.00,SW,230,1.0,6.0,94,0.00,,,0.00,Wunderground PWS Mod,2013-03-12 10:30:00,
2013-03-12 06:36:00,47.2,45.6,30.01,SW,218,1.0,6.0,94,0.00,,,0.00,Wunderground PWS Mod,2013-03-12 10:36:00,
2013-03-12 06:41:00,47.2,45.6,30.00,SSE,153,1.0,6.0,94,0.00,,,0.00,Wunderground PWS Mod,2013-03-12 10:41:00,
2013-03-12 06:47:00,47.2,45.6,30.00,SSW,193,1.0,6.0,94,0.00,,,0.00,Wunderground PWS Mod,2013-03-12 10:47:00,
2013-03-12 06:52:00,47.2,45.6,30.00,WSW,244,1.0,6.0,94,0.00,,,0.00,Wunderground PWS Mod,2013-03-12 10:52:00,
2013-03-12 06:58:00,47.2,45.6,30.00,SSW,211,1.0,6.0,94,0.00,,,0.00,Wunderground PWS Mod,2013-03-12 10:58:00,
2013-03-12 07:03:00,47.3,45.7,30.00,ESE,105,1.0,6.0,94,0.00,,,0.00,Wunderground PWS Mod,2013-03-12 11:03:00,
2013-03-12 07:09:00,47.3,45.7,29.99,South,181,1.0,6.0,94,0.00,,,0.00,Wunderground PWS Mod,2013-03-12 11:09:00,
2013-03-12 07:14:00,47.4,45.8,30.00,South,184,1.0,6.0,94,0.00,,,0.00,Wunderground PWS Mod,2013-03-12 11:14:00,
2013-03-12 07:20:00,47.4,45.8,30.00,South,191,1.0,6.0,94,0.00,,,0.00,Wunderground PWS Mod,2013-03-12 11:20:00,
2013-03-12 07:27:00,47.4,45.8,29.99,SW,219,1.0,6.0,94,0.00,,,0.00,Wunderground PWS Mod,2013-03-12 11:27:00,
2013-03-12 07:33:00,47.4,45.8,30.00,SSW,192,1.0,6.0,94,0.00,,,0.00,Wunderground PWS Mod,2013-03-12 11:33:00,
2013-03-12 07:38:00,47.4,45.8,29.99,South,186,1.0,6.0,94,0.00,,,0.00,Wunderground PWS Mod,2013-03-12 11:38:00,
2013-03-12 07:43:00,47.4,45.8,29.99,SSW,204,0.0,6.0,94,0.00,,,0.00,Wunderground PWS Mod,2013-03-12 11:43:00,
2013-03-12 07:49:00,47.4,45.8,29.99,SE,132,1.0,6.0,94,0.00,,,0.00,Wunderground PWS Mod,2013-03-12 11:49:00,
2013-03-12 07:54:00,47.5,45.9,30.00,SSW,207,1.0,6.0,94,0.00,,,0.00,Wunderground PWS Mod,2013-03-12 11:54:00,
2013-03-12 08:00:00,47.6,46.0,30.00,SSW,208,1.0,6.0,94,0.00,,,0.00,Wunderground PWS Mod,2013-03-12 12:00:00,
2013-03-12 08:05:00,47.7,46.1,30.00,SW,232,1.0,8.0,94,0.00,,,0.00,Wunderground PWS Mod,2013-03-12 12:05:00,
2013-03-12 08:11:00,47.8,46.2,30.00,SW,221,1.0,8.0,94,0.00,,,0.00,Wunderground PWS Mod,2013-03-12 12:11:00,
2013-03-12 08:14:00,47.6,46.0,30.00,SSW,203,1.0,8.0,94,0.00,,,0.00,Wunderground PWS Mod,2013-03-12 12:14:00,
2013-03-12 08:16:00,47.9,46.3,30.00,SSW,209,1.0,8.0,94,0.00,,,0.00,Wunderground PWS Mod,2013-03-12 12:16:00,
2013-03-12 08:22:00,48.1,46.5,30.00,SW,228,1.0,8.0,94,0.00,,,0.00,Wunderground PWS Mod,2013-03-12 12:22:00,
2013-03-12 08:27:00,48.3,46.7,30.00,South,178,0.0,8.0,94,0.00,,,0.00,Wunderground PWS Mod,2013-03-12 12:27:00,
2013-03-12 08:32:00,48.4,46.8,30.00,SSW,195,0.0,8.0,94,0.00,,,0.00,Wunderground PWS Mod,2013-03-12 12:32:00,
2013-03-12 08:37:00,48.5,46.6,30.00,SSE,164,0.0,8.0,93,0.00,,,0.00,Wunderground PWS Mod,2013-03-12 12:37:00,
2013-03-12 08:43:00,48.7,46.8,30.00,South,188,0.0,8.0,93,0.00,,,0.00,Wunderground PWS Mod,2013-03-12 12:43:00,
2013-03-12 08:48:00,48.7,46.8,30.00,SSW,193,0.0,8.0,93,0.00,,,0.00,Wunderground PWS Mod,2013-03-12 12:48:00,
2013-03-12 08:53:00,48.8,46.9,30.00,South,180,0.0,8.0,93,0.00,,,0.00,Wunderground PWS Mod,2013-03-12 12:53:00,
2013-03-12 08:58:00,48.9,46.7,30.01,South,174,0.0,8.0,92,0.00,,,0.00,Wunderground PWS Mod,2013-03-12 12:58:00,
2013-03-12 09:04:00,48.9,46.7,30.00,SSE,165,0.0,8.0,92,0.00,,,0.00,Wunderground PWS Mod,2013-03-12 13:04:00,
2013-03-12 09:10:00,48.9,46.7,30.00,South,178,0.0,8.0,92,0.00,,,0.00,Wunderground PWS Mod,2013-03-12 13:10:00,
2013-03-12 09:15:00,48.9,46.7,30.00,South,186,0.0,8.0,92,0.00,,,0.00,Wunderground PWS Mod,2013-03-12 13:15:00,
2013-03-12 09:20:00,49.0,46.8,30.00,SE,128,0.0,8.0,92,0.00,,,0.00,Wunderground PWS Mod,2013-03-12 13:20:00,
2013-03-12 09:25:00,49.0,46.8,30.00,South,172,0.0,8.0,92,0.00,,,0.00,Wunderground PWS Mod,2013-03-12 13:25:00,
2013-03-12 09:31:00,49.1,46.6,29.99,South,180,0.0,8.0,91,0.00,,,0.00,Wunderground PWS Mod,2013-03-12 13:31:00,
2013-03-12 09:36:00,49.3,46.8,29.99,South,172,0.0,8.0,91,0.00,,,0.00,Wunderground PWS Mod,2013-03-12 13:36:00,
2013-03-12 09:42:00,49.5,47.0,29.98,SSE,161,0.0,8.0,91,0.00,,,0.00,Wunderground PWS Mod,2013-03-12 13:42:00,
2013-03-12 09:48:00,49.7,47.2,29.98,South,189,0.0,8.0,91,0.00,,,0.00,Wunderground PWS Mod,2013-03-12 13:48:00,
2013-03-12 09:54:00,49.8,47.0,29.98,SSW,205,0.0,8.0,90,0.00,,,0.00,Wunderground PWS Mod,2013-03-12 13:54:00,
2013-03-12 10:00:00,49.9,47.1,29.98,SSE,153,0.0,8.0,90,0.00,,,0.00,Wunderground PWS Mod,2013-03-12 14:00:00,
2013-03-12 10:05:00,49.8,47.0,29.98,SSW,194,1.0,8.0,90,0.00,,,0.00,Wunderground PWS Mod,2013-03-12 14:05:00,
2013-03-12 10:10:00,49.8,47.0,29.98,SE,127,1.0,8.0,90,0.00,,,0.00,Wunderground PWS Mod,2013-03-12 14:10:00,
2013-03-12 10:15:00,49.7,46.9,29.98,SSE,167,1.0,8.0,90,0.00,,,0.00,Wunderground PWS Mod,2013-03-12 14:15:00,
2013-03-12 10:21:00,49.6,46.5,29.98,SSE,158,1.0,8.0,89,0.00,,,0.00,Wunderground PWS Mod,2013-03-12 14:21:00,
2013-03-12 10:27:00,49.5,46.7,29.98,SSE,161,0.0,8.0,90,0.00,,,0.00,Wunderground PWS Mod,2013-03-12 14:27:00,
2013-03-12 10:32:00,49.4,46.6,29.97,SE,136,0.0,8.0,90,0.00,,,0.00,Wunderground PWS Mod,2013-03-12 14:32:00,
2013-03-12 10:38:00,49.4,46.6,29.97,South,186,0.0,8.0,90,0.00,,,0.00,Wunderground PWS Mod,2013-03-12 14:38:00,
2013-03-12 10:43:00,49.4,46.6,29.97,South,173,0.0,8.0,90,0.00,,,0.00,Wunderground PWS Mod,2013-03-12 14:43:00,
2013-03-12 10:49:00,49.4,46.6,29.97,SE,146,0.0,8.0,90,0.00,,,0.00,Wunderground PWS Mod,2013-03-12 14:49:00,
2013-03-12 10:54:00,49.4,46.6,29.96,SE,137,0.0,8.0,90,0.00,,,0.00,Wunderground PWS Mod,2013-03-12 14:54:00,
2013-03-12 11:00:00,49.5,46.7,29.96,ESE,123,0.0,8.0,90,0.00,,,0.00,Wunderground PWS Mod,2013-03-12 15:00:00,
2013-03-12 11:05:00,49.5,47.0,29.96,SSW,202,0.0,8.0,91,0.00,,,0.00,Wunderground PWS Mod,2013-03-12 15:05:00,
2013-03-12 11:10:00,49.6,47.1,29.95,SSE,163,0.0,8.0,91,0.00,,,0.00,Wunderground PWS Mod,2013-03-12 15:10:00,
2013-03-12 11:17:00,49.6,46.8,29.95,SSE,165,0.0,8.0,90,0.00,,,0.00,Wunderground PWS Mod,2013-03-12 15:17:00,
2013-03-12 11:23:00,49.6,46.8,29.95,SSE,161,0.0,8.0,90,0.00,,,0.00,Wunderground PWS Mod,2013-03-12 15:23:00,
2013-03-12 11:28:00,49.6,46.8,29.95,South,171,1.0,8.0,90,0.00,,,0.00,Wunderground PWS Mod,2013-03-12 15:28:00,
2013-03-12 11:34:00,49.6,46.8,29.95,SE,130,1.0,8.0,90,0.00,,,0.00,Wunderground PWS Mod,2013-03-12 15:34:00,
2013-03-12 11:40:00,49.6,46.8,29.95,SSW,201,0.0,8.0,90,0.00,,,0.00,Wunderground PWS Mod,2013-03-12 15:40:00,
2013-03-12 11:45:00,49.6,46.8,29.94,South,187,0.0,8.0,90,0.00,,,0.00,Wunderground PWS Mod,2013-03-12 15:45:00,
2013-03-12 11:51:00,49.6,47.1,29.94,SSE,151,0.0,8.0,91,0.00,,,0.00,Wunderground PWS Mod,2013-03-12 15:51:00,
2013-03-12 11:56:00,49.7,47.2,29.94,SE,132,1.0,8.0,91,0.00,,,0.00,Wunderground PWS Mod,2013-03-12 15:56:00,
2013-03-12 12:01:00,49.7,47.2,29.93,SW,220,1.0,8.0,91,0.00,,,0.00,Wunderground PWS Mod,2013-03-12 16:01:00,
2013-03-12 12:07:00,49.8,47.3,29.93,SW,215,1.0,13.0,91,0.00,,,0.00,Wunderground PWS Mod,2013-03-12 16:07:00,
2013-03-12 12:13:00,50.0,47.5,29.93,WSW,250,1.0,13.0,91,0.00,,,0.00,Wunderground PWS Mod,2013-03-12 16:13:00,
2013-03-12 12:19:00,50.2,47.7,29.92,East,86,1.0,13.0,91,0.00,,,0.00,Wunderground PWS Mod,2013-03-12 16:19:00,
2013-03-12 12:24:00,50.3,47.8,29.92,SSE,166,1.0,13.0,91,0.00,,,0.00,Wunderground PWS Mod,2013-03-12 16:24:00,
2013-03-12 12:30:00,50.5,48.0,29.92,SE,129,1.0,13.0,91,0.00,,,0.00,Wunderground PWS Mod,2013-03-12 16:30:00,
2013-03-12 12:36:00,50.6,48.1,29.92,South,187,1.0,13.0,91,0.00,,,0.00,Wunderground PWS Mod,2013-03-12 16:36:00,
2013-03-12 12:43:00,51.0,48.5,29.92,SW,231,1.0,13.0,91,0.00,,,0.00,Wunderground PWS Mod,2013-03-12 16:43:00,
2013-03-12 12:48:00,51.3,48.8,29.92,SSW,196,0.0,13.0,91,0.00,,,0.00,Wunderground PWS Mod,2013-03-12 16:48:00,
2013-03-12 12:54:00,51.4,48.6,29.91,SE,126,0.0,13.0,90,0.00,,,0.00,Wunderground PWS Mod,2013-03-12 16:54:00,
2013-03-12 13:00:00,51.5,49.0,29.91,SSE,167,1.0,13.0,91,0.00,,,0.00,Wunderground PWS Mod,2013-03-12 17:00:00,
2013-03-12 13:06:00,51.5,49.3,29.91,WSW,248,1.0,13.0,92,0.00,,,0.00,Wunderground PWS Mod,2013-03-12 17:06:00,
2013-03-12 13:11:00,51.5,49.3,29.90,West,270,1.0,13.0,92,0.00,,,0.00,Wunderground PWS Mod,2013-03-12 17:11:00,
2013-03-12 13:17:00,51.4,49.2,29.90,SSW,212,1.0,13.0,92,0.00,,,0.01,Wunderground PWS Mod,2013-03-12 17:17:00,
2013-03-12 13:23:00,51.2,49.2,29.90,South,176,1.0,13.0,93,0.00,,,0.01,Wunderground PWS Mod,2013-03-12 17:23:00,
2013-03-12 13:28:00,51.1,49.1,29.90,South,185,1.0,13.0,93,0.00,,,0.01,Wunderground PWS Mod,2013-03-12 17:28:00,
2013-03-12 13:33:00,51.0,49.3,29.89,SW,225,1.0,13.0,94,0.00,,,0.01,Wunderground PWS Mod,2013-03-12 17:33:00,
2013-03-12 13:39:00,51.0,49.3,29.89,South,179,1.0,13.0,94,0.00,,,0.01,Wunderground PWS Mod,2013-03-12 17:39:00,
2013-03-12 13:44:00,50.9,49.2,29.88,SE,128,1.0,13.0,94,0.00,,,0.01,Wunderground PWS Mod,2013-03-12 17:44:00,
2013-03-12 13:50:00,50.8,49.1,29.88,WSW,246,1.0,13.0,94,0.00,,,0.02,Wunderground PWS Mod,2013-03-12 17:50:00,
2013-03-12 13:55:00,50.7,49.0,29.88,South,176,1.0,13.0,94,0.00,,,0.02,Wunderground PWS Mod,2013-03-12 17:55:00,
2013-03-12 14:00:00,50.6,48.9,29.88,SW,223,1.0,13.0,94,0.00,,,0.02,Wunderground PWS Mod,2013-03-12 18:00:00,
2013-03-12 14:06:00,50.5,48.8,29.87,South,188,1.0,13.0,94,0.00,,,0.02,Wunderground PWS Mod,2013-03-12 18:06:00,
2013-03-12 14:12:00,50.5,48.8,29.87,SSE,150,1.0,13.0,94,0.00,,,0.02,Wunderground PWS Mod,2013-03-12 18:12:00,
2013-03-12 14:17:00,50.5,48.8,29.86,South,186,1.0,13.0,94,0.00,,,0.02,Wunderground PWS Mod,2013-03-12 18:17:00,
2013-03-12 14:22:00,50.5,48.8,29.86,SW,217,1.0,13.0,94,0.00,,,0.02,Wunderground PWS Mod,2013-03-12 18:22:00,
2013-03-12 14:28:00,50.6,48.9,29.86,SSW,206,1.0,13.0,94,0.00,,,0.02,Wunderground PWS Mod,2013-03-12 18:28:00,
2013-03-12 14:33:00,50.7,49.0,29.86,SSW,192,1.0,13.0,94,0.00,,,0.02,Wunderground PWS Mod,2013-03-12 18:33:00,
2013-03-12 14:38:00,50.9,49.2,29.85,South,171,1.0,13.0,94,0.00,,,0.02,Wunderground PWS Mod,2013-03-12 18:38:00,
2013-03-12 14:44:00,51.0,49.3,29.85,South,190,1.0,13.0,94,0.00,,,0.02,Wunderground PWS Mod,2013-03-12 18:44:00,
2013-03-12 14:50:00,51.1,49.4,29.84,South,188,2.0,13.0,94,0.00,,,0.03,Wunderground PWS Mod,2013-03-12 18:50:00,
2013-03-12 14:56:00,51.0,49.3,29.84,East,91,1.0,13.0,94,0.00,,,0.03,Wunderground PWS Mod,2013-03-12 18:56:00,
2013-03-12 15:01:00,50.9,49.2,29.84,West,263,1.0,13.0,94,0.00,,,0.03,Wunderground PWS Mod,2013-03-12 19:01:00,
2013-03-12 15:07:00,50.8,49.4,29.83,SSE,153,1.0,13.0,95,0.05,,,0.04,Wunderground PWS Mod,2013-03-12 19:07:00,
2013-03-12 15:12:00,50.7,49.3,29.83,SE,136,1.0,13.0,95,0.05,,,0.04,Wunderground PWS Mod,2013-03-12 19:12:00,
2013-03-12 15:18:00,50.6,49.2,29.83,SW,220,1.0,13.0,95,0.06,,,0.05,Wunderground PWS Mod,2013-03-12 19:18:00,
2013-03-12 15:23:00,50.5,49.1,29.82,SSW,199,1.0,13.0,95,0.06,,,0.05,Wunderground PWS Mod,2013-03-12 19:23:00,
2013-03-12 15:29:00,50.3,48.9,29.82,South,178,2.0,13.0,95,0.04,,,0.06,Wunderground PWS Mod,2013-03-12 19:29:00,
2013-03-12 15:34:00,50.3,49.2,29.82,WSW,248,2.0,13.0,96,0.04,,,0.06,Wunderground PWS Mod,2013-03-12 19:34:00,
2013-03-12 15:40:00,50.3,49.2,29.81,ESE,107,1.0,13.0,96,0.04,,,0.06,Wunderground PWS Mod,2013-03-12 19:40:00,
2013-03-12 15:46:00,50.1,49.0,29.81,SSW,212,1.0,13.0,96,0.05,,,0.07,Wunderground PWS Mod,2013-03-12 19:46:00,
2013-03-12 15:51:00,50.1,49.0,29.80,West,263,2.0,13.0,96,0.07,,,0.08,Wunderground PWS Mod,2013-03-12 19:51:00,
2013-03-12 15:57:00,50.1,49.0,29.80,SSW,209,1.0,13.0,96,0.13,,,0.09,Wunderground PWS Mod,2013-03-12 19:57:00,
2013-03-12 16:02:00,50.1,49.0,29.80,SSW,198,2.0,13.0,96,0.08,,,0.09,Wunderground PWS Mod,2013-03-12 20:02:00,
2013-03-12 16:08:00,50.1,49.3,29.80,SSE,148,2.0,10.0,97,0.07,,,0.10,Wunderground PWS Mod,2013-03-12 20:08:00,
2013-03-12 16:13:00,50.3,49.5,29.79,South,171,2.0,10.0,97,0.11,,,0.11,Wunderground PWS Mod,2013-03-12 20:13:00,
2013-03-12 16:19:00,50.3,49.5,29.79,WSW,255,2.0,10.0,97,0.08,,,0.12,Wunderground PWS Mod,2013-03-12 20:19:00,
2013-03-12 16:24:00,50.3,49.5,29.79,South,184,1.0,10.0,97,0.08,,,0.13,Wunderground PWS Mod,2013-03-12 20:24:00,
2013-03-12 16:30:00,50.2,49.4,29.78,SSE,163,1.0,10.0,97,0.08,,,0.13,Wunderground PWS Mod,2013-03-12 20:30:00,
2013-03-12 16:35:00,49.9,49.1,29.78,SE,125,1.0,10.0,97,0.07,,,0.14,Wunderground PWS Mod,2013-03-12 20:35:00,
2013-03-12 16:41:00,49.5,48.7,29.77,SE,132,2.0,10.0,97,0.07,,,0.15,Wunderground PWS Mod,2013-03-12 20:41:00,
2013-03-12 16:46:00,49.3,48.5,29.77,SSW,212,2.0,10.0,97,0.07,,,0.15,Wunderground PWS Mod,2013-03-12 20:46:00,
2013-03-12 16:51:00,49.3,48.5,29.77,South,175,1.0,10.0,97,0.11,,,0.16,Wunderground PWS Mod,2013-03-12 20:51:00,
2013-03-12 16:56:00,49.4,48.6,29.76,SSW,199,1.0,10.0,97,0.10,,,0.17,Wunderground PWS Mod,2013-03-12 20:56:00,
2013-03-12 17:02:00,49.4,48.6,29.76,SSE,168,2.0,10.0,97,0.15,,,0.19,Wunderground PWS Mod,2013-03-12 21:02:00,
2013-03-12 17:07:00,49.4,48.6,29.76,SSE,147,2.0,10.0,97,0.14,,,0.20,Wunderground PWS Mod,2013-03-12 21:07:00,
2013-03-12 17:13:00,49.5,48.7,29.75,South,170,2.0,10.0,97,0.12,,,0.21,Wunderground PWS Mod,2013-03-12 21:13:00,
2013-03-12 17:18:00,49.5,48.7,29.74,South,188,2.0,10.0,97,0.09,,,0.22,Wunderground PWS Mod,2013-03-12 21:18:00,
2013-03-12 17:23:00,49.5,48.7,29.74,SE,135,2.0,10.0,97,0.09,,,0.22,Wunderground PWS Mod,2013-03-12 21:23:00,
2013-03-12 17:29:00,49.5,48.7,29.74,SSE,151,2.0,10.0,97,0.09,,,0.23,Wunderground PWS Mod,2013-03-12 21:29:00,
2013-03-12 17:34:00,49.4,48.6,29.73,SE,143,2.0,10.0,97,0.07,,,0.24,Wunderground PWS Mod,2013-03-12 21:34:00,
2013-03-12 17:40:00,49.4,48.6,29.73,SE,145,2.0,10.0,97,0.13,,,0.25,Wunderground PWS Mod,2013-03-12 21:40:00,
2013-03-12 17:46:00,49.3,48.5,29.72,SSW,209,1.0,10.0,97,0.19,,,0.27,Wunderground PWS Mod,2013-03-12 21:46:00,
2013-03-12 17:51:00,49.3,48.5,29.72,SSW,200,1.0,10.0,97,0.15,,,0.28,Wunderground PWS Mod,2013-03-12 21:51:00,
2013-03-12 17:57:00,49.3,48.5,29.71,South,177,1.0,10.0,97,0.15,,,0.30,Wunderground PWS Mod,2013-03-12 21:57:00,
2013-03-12 18:02:00,49.3,48.8,29.71,West,265,2.0,10.0,98,0.16,,,0.32,Wunderground PWS Mod,2013-03-12 22:02:00,
2013-03-12 18:07:00,49.3,48.8,29.71,South,173,2.0,10.0,98,0.21,,,0.33,Wunderground PWS Mod,2013-03-12 22:07:00,
2013-03-12 18:13:00,49.4,48.9,29.71,SW,225,2.0,10.0,98,0.25,,,0.35,Wunderground PWS Mod,2013-03-12 22:13:00,
2013-03-12 18:18:00,49.7,49.2,29.71,SE,132,2.0,10.0,98,0.72,,,0.39,Wunderground PWS Mod,2013-03-12 22:18:00,
2013-03-12 18:24:00,50.0,49.5,29.70,SSE,157,2.0,10.0,98,0.58,,,0.46,Wunderground PWS Mod,2013-03-12 22:24:00,
2013-03-12 18:30:00,50.1,49.6,29.70,South,190,2.0,10.0,98,0.47,,,0.52,Wunderground PWS Mod,2013-03-12 22:30:00,
2013-03-12 18:36:00,50.0,49.5,29.70,SSW,211,2.0,10.0,98,0.31,,,0.56,Wunderground PWS Mod,2013-03-12 22:36:00,
2013-03-12 18:41:00,50.1,49.6,29.70,WNW,297,2.0,10.0,98,0.18,,,0.58,Wunderground PWS Mod,2013-03-12 22:41:00,
2013-03-12 18:47:00,50.5,50.0,29.70,WSW,249,3.0,10.0,98,0.11,,,0.59,Wunderground PWS Mod,2013-03-12 22:47:00,
2013-03-12 18:52:00,50.5,50.0,29.70,SE,142,3.0,10.0,98,0.08,,,0.59,Wunderground PWS Mod,2013-03-12 22:52:00,
2013-03-12 18:58:00,50.9,50.4,29.71,North,360,3.0,10.0,98,0.04,,,0.59,Wunderground PWS Mod,2013-03-12 22:58:00,
2013-03-12 19:04:00,51.3,50.8,29.71,SW,229,3.0,10.0,98,0.00,,,0.59,Wunderground PWS Mod,2013-03-12 23:04:00,
2013-03-12 19:10:00,51.3,50.8,29.71,SSW,197,4.0,10.0,98,0.00,,,0.59,Wunderground PWS Mod,2013-03-12 23:10:00,
2013-03-12 19:15:00,51.2,50.7,29.71,SW,227,27.0,84.0,98,0.00,,,0.60,Wunderground PWS Mod,2013-03-12 23:15:00,
2013-03-12 19:20:00,50.9,50.4,29.71,South,169,68.0,84.0,98,0.00,,,0.60,Wunderground PWS Mod,2013-03-12 23:20:00,
2013-03-12 19:26:00,50.9,50.4,29.72,North,360,86.0,118.0,98,0.00,,,0.60,Wunderground PWS Mod,2013-03-12 23:26:00,
2013-03-12 19:32:00,50.9,50.4,29.72,WSW,237,82.0,82.0,98,0.00,,,0.61,Wunderground PWS Mod,2013-03-12 23:32:00,
2013-03-12 19:38:00,51.2,50.7,29.72,North,360,83.0,83.0,98,0.00,,,0.61,Wunderground PWS Mod,2013-03-12 23:38:00,
2013-03-12 19:44:00,51.3,50.8,29.73,WSW,247,81.0,90.0,98,0.00,,,0.61,Wunderground PWS Mod,2013-03-12 23:44:00,
2013-03-12 19:50:00,51.5,51.0,29.73,West,267,59.0,59.0,98,0.04,,,0.62,Wunderground PWS Mod,2013-03-12 23:50:00,
2013-03-12 19:55:00,51.5,51.0,29.73,SW,232,20.0,20.0,98,0.04,,,0.62,Wunderground PWS Mod,2013-03-12 23:55:00,
2013-03-12 20:00:00,51.3,50.8,29.73,SSE,150,4.0,10.0,98,0.04,,,0.62,Wunderground PWS Mod,2013-03-13 00:00:00,
2013-03-12 20:05:00,50.9,50.4,29.73,West,277,4.0,130.0,98,0.00,,,0.62,Wunderground PWS Mod,2013-03-13 00:05:00,
2013-03-12 20:12:00,50.4,49.9,29.73,SW,214,3.0,130.0,98,0.00,,,0.62,Wunderground PWS Mod,2013-03-13 00:12:00,
2013-03-12 20:14:00,51.1,50.6,29.73,West,270,37.0,130.0,98,0.03,,,0.63,Wunderground PWS Mod,2013-03-13 00:14:00,
2013-03-12 20:17:00,50.3,49.8,29.73,WSW,241,2.0,130.0,98,0.00,,,0.62,Wunderground PWS Mod,2013-03-13 00:17:00,
2013-03-12 20:22:00,50.3,49.8,29.73,WSW,237,2.0,130.0,98,0.00,,,0.62,Wunderground PWS Mod,2013-03-13 00:22:00,
2013-03-12 20:27:00,50.2,49.7,29.73,West,265,2.0,130.0,98,0.00,,,0.62,Wunderground PWS Mod,2013-03-13 00:27:00,
2013-03-12 20:32:00,50.2,49.7,29.72,SW,234,3.0,130.0,98,0.00,,,0.62,Wunderground PWS Mod,2013-03-13 00:32:00,
2013-03-12 20:38:00,50.3,49.8,29.72,West,272,3.0,130.0,98,0.00,,,0.62,Wunderground PWS Mod,2013-03-13 00:38:00,
2013-03-12 20:44:00,50.2,49.7,29.72,SW,221,3.0,130.0,98,0.00,,,0.62,Wunderground PWS Mod,2013-03-13 00:44:00,
2013-03-12 20:50:00,50.1,49.6,29.72,WSW,252,2.0,130.0,98,0.00,,,0.62,Wunderground PWS Mod,2013-03-13 00:50:00,
2013-03-12 20:56:00,49.9,49.4,29.72,SW,220,2.0,130.0,98,0.00,,,0.62,Wunderground PWS Mod,2013-03-13 00:56:00,
2013-03-12 21:01:00,49.8,49.3,29.72,West,269,2.0,130.0,98,0.00,,,0.62,Wunderground PWS Mod,2013-03-13 01:01:00,
2013-03-12 21:07:00,49.6,49.1,29.72,WSW,247,2.0,130.0,98,0.00,,,0.62,Wunderground PWS Mod,2013-03-13 01:07:00,
2013-03-12 21:12:00,49.5,49.0,29.72,WSW,247,1.0,130.0,98,0.00,,,0.62,Wunderground PWS Mod,2013-03-13 01:12:00,
2013-03-12 21:18:00,49.4,48.9,29.72,WSW,239,1.0,130.0,98,0.00,,,0.62,Wunderground PWS Mod,2013-03-13 01:18:00,
2013-03-12 21:24:00,49.4,48.9,29.72,SW,231,1.0,130.0,98,0.00,,,0.62,Wunderground PWS Mod,2013-03-13 01:24:00,
2013-03-12 21:30:00,49.4,48.9,29.72,WSW,249,1.0,130.0,98,0.00,,,0.62,Wunderground PWS Mod,2013-03-13 01:30:00,
2013-03-12 21:35:00,49.3,48.8,29.72,West,266,1.0,130.0,98,0.00,,,0.62,Wunderground PWS Mod,2013-03-13 01:35:00,
2013-03-12 21:40:00,49.3,48.8,29.72,WSW,246,1.0,130.0,98,0.00,,,0.62,Wunderground PWS Mod,2013-03-13 01:40:00,
2013-03-12 21:45:00,49.3,48.8,29.71,WSW,247,1.0,130.0,98,0.00,,,0.62,Wunderground PWS Mod,2013-03-13 01:45:00,
2013-03-12 21:51:00,49.3,48.8,29.72,WSW,250,0.0,130.0,98,0.00,,,0.63,Wunderground PWS Mod,2013-03-13 01:51:00,
2013-03-12 21:56:00,49.2,48.7,29.72,WSW,251,1.0,130.0,98,0.00,,,0.63,Wunderground PWS Mod,2013-03-13 01:56:00,
2013-03-12 22:01:00,49.2,48.7,29.72,WSW,238,1.0,130.0,98,0.00,,,0.63,Wunderground PWS Mod,2013-03-13 02:01:00,
2013-03-12 22:07:00,49.2,48.7,29.72,WSW,254,1.0,130.0,98,0.00,,,0.63,Wunderground PWS Mod,2013-03-13 02:07:00,
2013-03-12 22:13:00,49.2,48.7,29.72,West,267,1.0,130.0,98,0.00,,,0.63,Wunderground PWS Mod,2013-03-13 02:13:00,
2013-03-12 22:18:00,49.3,48.8,29.71,West,259,1.0,130.0,98,0.00,,,0.63,Wunderground PWS Mod,2013-03-13 02:18:00,
2013-03-12 22:23:00,49.3,48.8,29.71,West,259,1.0,130.0,98,0.00,,,0.63,Wunderground PWS Mod,2013-03-13 02:23:00,
2013-03-12 22:29:00,49.4,48.9,29.72,West,281,1.0,130.0,98,0.00,,,0.63,Wunderground PWS Mod,2013-03-13 02:29:00,
2013-03-12 22:34:00,49.4,48.9,29.72,West,267,1.0,130.0,98,0.00,,,0.63,Wunderground PWS Mod,2013-03-13 02:34:00,
2013-03-12 22:40:00,49.3,48.8,29.72,North,360,11.0,130.0,98,0.00,,,0.63,Wunderground PWS Mod,2013-03-13 02:40:00,
2013-03-12 22:45:00,49.2,48.7,29.72,West,262,28.0,131.0,98,0.00,,,0.63,Wunderground PWS Mod,2013-03-13 02:45:00,
2013-03-12 22:51:00,49.2,48.7,29.73,North,360,24.0,130.0,98,0.00,,,0.63,Wunderground PWS Mod,2013-03-13 02:51:00,
2013-03-12 22:56:00,49.2,48.7,29.72,North,360,7.0,130.0,98,0.00,,,0.63,Wunderground PWS Mod,2013-03-13 02:56:00,
2013-03-12 23:01:00,49.1,48.6,29.72,WSW,256,0.0,130.0,98,0.00,,,0.63,Wunderground PWS Mod,2013-03-13 03:01:00,
2013-03-12 23:06:00,49.0,48.5,29.72,WSW,258,9.0,130.0,98,0.00,,,0.63,Wunderground PWS Mod,2013-03-13 03:06:00,
2013-03-12 23:12:00,49.0,48.5,29.72,WSW,258,59.0,130.0,98,0.00,,,0.63,Wunderground PWS Mod,2013-03-13 03:12:00,
2013-03-12 23:17:00,49.0,48.5,29.72,North,360,85.0,130.0,98,0.00,,,0.63,Wunderground PWS Mod,2013-03-13 03:17:00,
2013-03-12 23:22:00,48.9,48.4,29.73,WSW,257,34.0,130.0,98,0.00,,,0.63,Wunderground PWS Mod,2013-03-13 03:22:00,
2013-03-12 23:28:00,48.9,48.4,29.73,West,273,0.0,130.0,98,0.00,,,0.63,Wunderground PWS Mod,2013-03-13 03:28:00,
2013-03-12 23:33:00,48.5,48.0,29.73,North,360,33.0,130.0,98,0.00,,,0.63,Wunderground PWS Mod,2013-03-13 03:33:00,
2013-03-12 23:39:00,47.3,46.8,29.73,NW,319,85.0,130.0,98,0.00,,,0.63,Wunderground PWS Mod,2013-03-13 03:39:00,
2013-03-12 23:44:00,45.5,45.0,29.73,NW,326,88.0,130.0,98,0.00,,,0.63,Wunderground PWS Mod,2013-03-13 03:44:00,
2013-03-12 23:50:00,44.8,44.3,29.73,NE,46,86.0,130.0,98,0.00,,,0.63,Wunderground PWS Mod,2013-03-13 03:50:00,
2013-03-12 23:56:00,44.5,43.7,29.73,North,360,57.0,130.0,97,0.00,,,0.63,Wunderground PWS Mod,2013-03-13 03:56:00,